[[{"header":{"parameterUnit":"m.s-1","parameterCategory":1,"la1":30.2991,"la2":30.254,"lo1":-89.0895,"lo2":-89.0444,"dy":0.0017,"dx":0.0017,"nx":28,"ny":28,"refTime":"2023-11-11T03:00:00:Z","depth":0,"parameterNumber":2,"parameterNumberName":"U-component_of_WINDS"},"data":[0,0,0,0,0,0,0,0,0,0,0,0,0,0,0,0,0,0,0,0,0,0,0,0,0,0,0,0,0,0,0,0,0,0,0,0,0,0,0,0,0,0,0,0,0,0,0,0,0,0,0,0,0,0,0,0,0,0,-1.791,-1.7911,0,-1.7946,-1.7947,-1.7947,-1.7902,-1.7901,-1.7899,-1.7898,-1.7936,-1.7939,-1.7941,0,0,0,0,0,0,0,0,0,0,0,0,0,-1.7804,-1.7806,-1.791,-1.7911,-1.7911,-1.7946,-1.7947,-1.7947,-1.7903,-1.7901,-1.7899,-1.7897,-1.7936,-1.7939,-1.7942,0,0,0,0,0,0,0,0,0,0,0,0,0,-1.7846,-1.7807,-1.791,-1.7893,-1.7892,-1.7946,-1.7947,-1.7948,-1.7903,-1.7901,-1.7898,-1.7896,-1.7935,-1.7938,-1.7942,-1.8016,0,0,-1.7954,-1.7956,0,0,0,0,0,0,0,0,-1.7844,-1.785,-1.7895,-1.7894,-1.7893,-1.7917,-1.7923,-1.797,-1.7904,-1.7899,-1.7897,-1.7895,-1.7932,-1.7936,-1.7948,-1.8017,-1.8019,-1.7954,-1.7957,-1.7958,-1.7959,0,0,0,0,0,0,0,-1.7841,-1.7848,-1.7925,-1.7896,-1.7895,-1.7884,-1.7887,-1.7932,-1.7929,-1.7899,-1.7896,-1.7901,-1.7931,-1.7945,-1.7949,-1.802,-1.7954,-1.7958,-1.796,-1.7961,-1.8151,-1.8154,0,0,0,0,0,0,-1.784,-1.7846,-1.7923,-1.7926,-1.7862,-1.7888,-1.7892,-1.7912,-1.7928,-1.7929,-1.7903,-1.7899,-1.7939,-1.7944,-1.795,-1.8038,-1.7958,-1.7962,-1.7964,-1.8149,-1.8152,-1.8155,0,0,0,0,0,0,-1.7838,-1.7847,-1.7922,-1.7885,-1.7894,-1.7892,-1.7916,-1.7914,-1.7928,-1.7931,-1.7931,-1.7917,-1.7938,-1.7945,-1.8,-1.8038,-1.7964,-1.7967,-1.8145,-1.815,-1.8153,-1.8213,0,0,0,0,0,0,-1.7835,-1.7846,-1.7874,-1.7886,-1.7896,-1.7971,-1.7918,-1.7917,-1.7934,-1.7929,-1.7945,-1.7945,-1.7936,-1.7994,-1.8003,-1.8042,-1.797,-1.8142,-1.8147,-1.8152,-1.8208,-1.8219,-1.8229,0,0,0,0,0,-1.7831,-1.789,-1.7876,-1.7885,-1.793,-1.7973,-1.7979,-1.7967,-1.7938,-1.7966,-1.7968,-1.7944,-1.8032,-1.8,-1.801,-1.8051,-1.8139,-1.8146,-1.8152,-1.8203,-1.8217,-1.8228,0,0,0,0,0,0,-1.7883,-1.7891,-1.7876,-1.794,-1.7956,-1.7965,-1.8,-1.7982,-1.8007,-1.8001,-1.7986,-1.799,-1.8049,-1.8055,-1.8019,-1.8123,-1.8081,-1.809,-1.8117,-1.813,-1.814,-1.8138,-1.7973,0,0,0,0,0,-1.7902,-1.7936,-1.7941,-1.7997,-1.8006,-1.8002,-1.802,-1.801,-1.8026,-1.8033,-1.8039,-1.8056,-1.8088,-1.8109,-1.8138,-1.8208,-1.8211,-1.8241,-1.8252,-1.826,-1.8268,-1.8306,-1.832,-1.8175,-1.8175,-1.8175,0,0,-1.7942,-1.795,-1.7973,-1.8008,-1.8019,-1.8055,-1.8008,-1.8048,-1.8074,-1.8039,-1.8091,-1.8096,-1.8115,-1.8178,-1.8206,-1.8185,-1.8308,-1.8268,-1.8275,-1.8278,-1.8314,-1.8327,-1.834,-1.8179,-1.8178,-1.8178,0,0,-1.8033,-1.8042,-1.809,-1.8103,-1.812,-1.8117,-1.8128,-1.814,-1.8142,-1.8194,-1.8169,-1.82,-1.8255,-1.8269,-1.8283,-1.8379,-1.8358,-1.8389,-1.8443,-1.848,-1.8492,-1.8502,-1.8537,-1.8549,-1.8396,-1.8396,-1.8397,0,-1.808,-1.8133,-1.8118,-1.8159,-1.8176,-1.8145,-1.8194,-1.8206,-1.8233,-1.8245,-1.8221,-1.8289,-1.8299,-1.8365,-1.8388,-1.8401,-1.8414,-1.8387,-1.8491,-1.8501,-1.851,-1.8543,-1.8557,-1.84,-1.84,-1.8399,-1.8399,0,-1.819,-1.8227,-1.8264,-1.829,-1.831,-1.8355,-1.8348,-1.837,-1.8358,-1.8358,-1.8411,-1.8422,-1.8453,-1.8468,-1.8456,-1.8532,-1.8519,-1.8493,-1.8451,-1.8528,-1.8559,-1.8571,-1.8405,-1.8404,-1.8403,-1.8402,0,0,-1.8316,-1.8333,-1.8347,-1.8358,-1.8375,-1.8403,-1.8447,-1.8476,-1.8497,-1.8516,-1.8552,-1.8599,-1.8575,-1.8592,-1.8581,-1.8614,-1.869,-1.8584,-1.8584,-1.8604,-1.8776,-1.8796,-1.881,-1.8676,-1.8678,-1.868,-1.8774,0,-1.8408,-1.8483,-1.8471,-1.8544,-1.8578,-1.8549,-1.8587,-1.8602,-1.8602,-1.8631,-1.8632,-1.8666,-1.8631,-1.8641,-1.8672,-1.8674,-1.8724,-1.8667,-1.8711,-1.8713,-1.8708,-1.8826,-1.8848,-1.8936,-1.8786,-1.8788,-1.879,0,-1.8525,-1.8548,-1.8624,-1.8636,-1.865,-1.8684,-1.8711,-1.8738,-1.8755,-1.8753,-1.8771,-1.8754,-1.8799,-1.8755,-1.8816,-1.8777,-1.8794,-1.8798,-1.8801,-1.8806,-1.8757,-1.8835,-1.8964,-1.8978,-1.8808,-1.8807,-1.8806,0,-1.861,-1.866,-1.8712,-1.8723,-1.8737,-1.8763,-1.877,-1.8783,-1.8802,-1.8825,-1.8837,-1.8865,-1.8881,-1.8903,-1.8895,-1.8864,-1.8958,-1.8913,-1.8958,-1.8959,-1.8981,-1.898,-1.9115,-1.899,-1.899,-1.899,-1.8989,0,-1.8714,-1.8763,-1.8751,-1.8783,-1.8837,-1.8822,-1.8875,-1.8879,-1.8891,-1.8924,-1.89,-1.8932,-1.8918,-1.8949,-1.8943,-1.8995,-1.9002,-1.9002,-1.9,-1.9005,-1.9005,-1.9017,-1.9011,-1.8993,-1.8992,-1.8992,-1.8991,0,-1.8819,-1.8813,-1.8869,-1.8877,-1.8881,-1.892,-1.8927,-1.8958,-1.8956,-1.8998,-1.9007,-1.9005,-1.904,-1.9033,-1.9072,-1.9068,-1.9133,-1.9123,-1.9128,-1.9126,-1.9172,-1.9168,-1.932,-1.934,-1.9201,-1.9203,-1.9204,0,-1.8887,-1.8923,-1.8936,-1.8956,-1.8965,-1.8997,-1.9016,-1.9003,-1.9024,-1.9045,-1.9073,-1.9106,-1.9131,-1.9188,-1.919,-1.922,-1.9211,-1.9262,-1.9215,-1.9219,-1.9213,-1.9211,-1.9215,-1.9272,-1.9274,-1.9275,-1.9276,0,-1.9007,-1.9003,-1.903,-1.9057,-1.908,-1.9101,-1.9119,-1.9137,-1.9126,-1.915,-1.9185,-1.9205,-1.9244,-1.9277,-1.9305,-1.9312,-1.9293,-1.929,-1.9303,-1.9309,-1.931,-1.9311,-1.9154,-1.9287,-1.9286,-1.9285,-1.9285,-1.9284,-1.9096,-1.9127,-1.9141,-1.9173,-1.9185,-1.9203,-1.9232,-1.9234,-1.9263,-1.9293,-1.9284,-1.9324,-1.9339,-1.9374,-1.9385,-1.9416,-1.9397,-1.9415,-1.9419,-1.9424,-1.943,-1.9304,-1.9421,-1.9421,-1.942,-1.942,-1.942,0,-1.9217,-1.9224,-1.9253,-1.9279,-1.9305,-1.9283,-1.9302,-1.9325,-1.936,-1.9375,-1.9401,-1.9441,-1.9473,-1.9477,-1.9507,-1.9532,-1.9524,-1.954,-1.9539,-1.9541,-1.9445,-1.9432,-1.9547,-1.9547,-1.9547,-1.9547,-1.9547,-1.9547,-1.9282,-1.9334,-1.9331,-1.9388,-1.9395,-1.9434,-1.9447,-1.9463,-1.9475,-1.9521,-1.9548,-1.955,-1.9561,-1.9592,-1.962,-1.962,-1.9633,-1.9653,-1.9651,-1.9561,-1.9548,-1.9536,-1.9524,-1.9656,-1.9656,-1.9745,-1.9745,-1.9746]},{"header":{"parameterUnit":"m.s-1","parameterCategory":1,"la1":30.2991,"la2":30.254,"lo1":-89.0895,"lo2":-89.0444,"dy":0.0017,"dx":0.0017,"nx":28,"ny":28,"refTime":"2023-11-11T03:00:00:Z","depth":0,"parameterNumber":3,"parameterNumberName":"V-component_of_WINDS"},"data":[0,0,0,0,0,0,0,0,0,0,0,0,0,0,0,0,0,0,0,0,0,0,0,0,0,0,0,0,0,0,0,0,0,0,0,0,0,0,0,0,0,0,0,0,0,0,0,0,0,0,0,0,0,0,0,0,0,0,-4.4567,-4.4567,0,-4.4585,-4.4585,-4.4585,-4.4531,-4.453,-4.4528,-4.4526,-4.4542,-4.4544,-4.4546,0,0,0,0,0,0,0,0,0,0,0,0,0,-4.4484,-4.4486,-4.4567,-4.4567,-4.4567,-4.4585,-4.4585,-4.4585,-4.4532,-4.453,-4.4528,-4.4526,-4.4542,-4.4544,-4.4546,0,0,0,0,0,0,0,0,0,0,0,0,0,-4.4513,-4.4486,-4.4567,-4.4543,-4.4541,-4.4585,-4.4585,-4.4585,-4.4532,-4.4529,-4.4527,-4.4525,-4.4541,-4.4544,-4.4546,-4.4614,0,0,-4.4555,-4.4557,0,0,0,0,0,0,0,0,-4.4511,-4.4516,-4.4546,-4.4545,-4.4542,-4.4553,-4.4561,-4.4595,-4.4533,-4.4535,-4.4526,-4.4524,-4.4548,-4.455,-4.4559,-4.4614,-4.4615,-4.4556,-4.4557,-4.4559,-4.4559,0,0,0,0,0,0,0,-4.4509,-4.4515,-4.4574,-4.4547,-4.4544,-4.453,-4.4531,-4.4567,-4.4555,-4.4535,-4.4531,-4.4534,-4.4546,-4.4556,-4.4558,-4.4615,-4.4556,-4.4558,-4.456,-4.4561,-4.4726,-4.4729,0,0,0,0,0,0,-4.4511,-4.4513,-4.4573,-4.4574,-4.452,-4.4534,-4.4535,-4.4552,-4.4554,-4.4552,-4.4536,-4.4531,-4.4552,-4.4555,-4.4559,-4.4637,-4.4559,-4.4561,-4.4563,-4.4724,-4.4727,-4.473,0,0,0,0,0,0,-4.4509,-4.4516,-4.4573,-4.4543,-4.4549,-4.4538,-4.4557,-4.4554,-4.4563,-4.4555,-4.4553,-4.4548,-4.455,-4.4555,-4.46,-4.4637,-4.4563,-4.4565,-4.4721,-4.4725,-4.4728,-4.4795,0,0,0,0,0,0,-4.4507,-4.4516,-4.4542,-4.4544,-4.4551,-4.4615,-4.456,-4.4556,-4.4569,-4.4563,-4.4566,-4.4564,-4.4549,-4.4596,-4.4603,-4.464,-4.4568,-4.4717,-4.4723,-4.4727,-4.4789,-4.4801,-4.481,0,0,0,0,0,-4.4504,-4.456,-4.4544,-4.4552,-4.4583,-4.4617,-4.4621,-4.4602,-4.4572,-4.4598,-4.4592,-4.4564,-4.4632,-4.4602,-4.4609,-4.4647,-4.4715,-4.4721,-4.4727,-4.4785,-4.4798,-4.481,0,0,0,0,0,0,-4.4562,-4.456,-4.4542,-4.46,-4.4609,-4.4608,-4.464,-4.4618,-4.4635,-4.4629,-4.4604,-4.4605,-4.4655,-4.4655,-4.4622,-4.4711,-4.4668,-4.4676,-4.471,-4.4722,-4.4733,-4.4731,-4.457,0,0,0,0,0,-4.4582,-4.4611,-4.4606,-4.4658,-4.4664,-4.4651,-4.4665,-4.465,-4.4658,-4.4662,-4.466,-4.4668,-4.4691,-4.4707,-4.4728,-4.4789,-4.4789,-4.4819,-4.4829,-4.4838,-4.4844,-4.4876,-4.4889,-4.4749,-4.4749,-4.4749,0,0,-4.4623,-4.4625,-4.4644,-4.467,-4.4675,-4.4704,-4.4655,-4.4688,-4.4709,-4.4667,-4.471,-4.4709,-4.4716,-4.477,-4.4794,-4.4772,-4.4883,-4.4845,-4.4852,-4.4854,-4.4884,-4.4897,-4.4909,-4.4753,-4.4753,-4.4752,0,0,-4.4712,-4.4717,-4.476,-4.4767,-4.4776,-4.4767,-4.4777,-4.478,-4.4777,-4.4821,-4.4789,-4.4813,-4.4854,-4.4861,-4.4869,-4.4961,-4.4935,-4.4968,-4.5023,-4.5054,-4.5065,-4.5075,-4.5107,-4.5118,-4.4975,-4.4975,-4.4975,0,-4.4761,-4.4805,-4.4785,-4.482,-4.4832,-4.4796,-4.4839,-4.4846,-4.4861,-4.487,-4.4845,-4.4895,-4.4898,-4.4952,-4.4974,-4.4983,-4.4993,-4.4967,-4.5065,-4.5075,-4.5083,-4.5113,-4.5126,-4.4979,-4.4979,-4.4978,-4.4978,0,-4.4864,-4.4895,-4.4929,-4.4945,-4.4961,-4.5,-4.4985,-4.5003,-4.4987,-4.4981,-4.5024,-4.5026,-4.5047,-4.5059,-4.5043,-4.5111,-4.5097,-4.5069,-4.5025,-4.5101,-4.5129,-4.514,-4.4985,-4.4983,-4.4982,-4.4981,0,0,-4.4991,-4.4996,-4.5008,-4.5015,-4.5022,-4.5045,-4.5082,-4.5103,-4.5118,-4.513,-4.516,-4.5195,-4.5169,-4.5179,-4.5164,-4.5191,-4.5263,-4.516,-4.516,-4.5179,-4.5337,-4.5358,-4.5372,-4.5246,-4.5249,-4.525,-4.5337,0,-4.5078,-4.5142,-4.5126,-4.5189,-4.5217,-4.5183,-4.5215,-4.5222,-4.5217,-4.5239,-4.5233,-4.5258,-4.5223,-4.5229,-4.5255,-4.5249,-4.5295,-4.5243,-4.5273,-4.5274,-4.5272,-4.5387,-4.5408,-4.549,-4.5348,-4.5349,-4.5351,0,-4.5188,-4.5205,-4.5272,-4.5274,-4.5285,-4.5315,-4.5332,-4.5354,-4.5361,-4.5355,-4.5367,-4.5345,-4.5381,-4.5337,-4.5385,-4.5351,-4.5362,-4.5361,-4.5364,-4.5365,-4.5317,-4.5391,-4.5515,-4.5527,-4.5368,-4.5366,-4.5365,0,-4.5273,-4.5312,-4.5357,-4.5364,-4.5368,-4.5389,-4.5392,-4.5397,-4.541,-4.5425,-4.5433,-4.5452,-4.5462,-4.5476,-4.5461,-4.543,-4.5511,-4.5466,-4.5507,-4.5507,-4.5525,-4.5524,-4.5652,-4.5533,-4.5533,-4.5533,-4.5533,0,-4.5372,-4.5414,-4.5395,-4.5422,-4.5468,-4.5448,-4.5494,-4.5492,-4.5497,-4.5523,-4.5494,-4.5519,-4.5497,-4.5519,-4.5507,-4.5549,-4.5553,-4.5549,-4.5545,-4.5552,-4.5552,-4.5558,-4.5552,-4.5536,-4.5535,-4.5535,-4.5534,0,-4.5474,-4.5463,-4.551,-4.551,-4.5511,-4.5544,-4.5544,-4.5569,-4.5562,-4.5595,-4.5602,-4.559,-4.5615,-4.5601,-4.5627,-4.5619,-4.5672,-4.5661,-4.567,-4.5667,-4.5708,-4.5704,-4.5845,-4.5862,-4.5732,-4.5734,-4.5735,0,-4.5538,-4.557,-4.5573,-4.5589,-4.5594,-4.5619,-4.5633,-4.5614,-4.5629,-4.564,-4.5663,-4.5686,-4.5703,-4.5745,-4.5738,-4.5758,-4.5746,-4.5794,-4.5749,-4.5754,-4.5746,-4.5744,-4.5747,-4.5803,-4.5805,-4.5806,-4.5807,0,-4.5652,-4.5645,-4.5666,-4.5685,-4.5703,-4.5717,-4.5728,-4.5742,-4.5724,-4.5742,-4.5768,-4.5781,-4.5807,-4.583,-4.5846,-4.5848,-4.5824,-4.5821,-4.5831,-4.5838,-4.5842,-4.5839,-4.5694,-4.5818,-4.5817,-4.5816,-4.5815,-4.5815,-4.5736,-4.5763,-4.5769,-4.5794,-4.58,-4.5812,-4.5835,-4.5831,-4.5853,-4.5873,-4.586,-4.589,-4.5896,-4.5916,-4.5921,-4.5943,-4.5924,-4.5939,-4.5943,-4.5946,-4.5952,-4.5839,-4.5946,-4.5946,-4.5946,-4.5945,-4.5945,0,-4.5848,-4.5851,-4.5874,-4.5891,-4.591,-4.5887,-4.5898,-4.5915,-4.5942,-4.595,-4.5968,-4.5997,-4.6019,-4.6014,-4.6034,-4.6053,-4.6042,-4.6059,-4.6057,-4.6057,-4.5968,-4.5957,-4.6067,-4.6067,-4.6067,-4.6067,-4.6067,-4.6067,-4.5909,-4.5952,-4.5946,-4.5992,-4.5993,-4.6023,-4.6032,-4.6042,-4.6048,-4.6082,-4.61,-4.6097,-4.61,-4.612,-4.6138,-4.6136,-4.6145,-4.6165,-4.6159,-4.6076,-4.6064,-4.6052,-4.6041,-4.6167,-4.6167,-4.6246,-4.6246,-4.6247]}]]